QUETZSAT 1

Last updated on Tue Oct 08 2024 00:02:39 GMT+0000 (Coordinated Universal Time)

1 37826U 11054A 24281.31325128 -.00000230 00000+0 00000+0 0 9993 2 37826 0.0585 69.9949 0002641 145.3135 196.9502 1.00272148 43685
UTC large
Height (km)
Speed (km/s)
/
Latitude / Longitude
Inclination (degrees)
Orbital Period (minutes)
Azimuth
Elevation
Range (km)
Doppler Factor

Next 0 passes for location: London (51.5072 / 0.1276)

Sorry there are no passes over London.